,,PA_Meas_PMT16A,,PR_Meas_QMR101_102,,RH_Meas_QMH101,,SR_Meas_QMS101,,TA_Meas_QMH101,,GenWind,,GenWind,
time,status,PA,status,PR,status,RH,status,SR,status,TA,status,DirAvg,status,SpdAvg,
2010-01-11, 00:00:04,VALID,919.413,VALID,0,VALID,97.8313,VALID,0,VALID,18.998,VALID,101,VALID,0.799219,
2010-01-11, 00:01:04,VALID,919.407,VALID,0,VALID,97.8465,VALID,0.107441,VALID,18.9785,VALID,101,VALID,0.961719,
2010-01-11, 00:02:04,VALID,919.395,VALID,0,VALID,97.8618,VALID,0,VALID,18.959,VALID,132,VALID,1.17305,
2010-01-11, 00:03:04,VALID,919.36,VALID,0,VALID,97.8694,VALID,0,VALID,18.959,VALID,134,VALID,1.26992,
2010-01-11, 00:04:04,VALID,919.366,VALID,0,VALID,97.8542,VALID,0,VALID,18.959,VALID,126,VALID,1.16797,
2010-01-11, 00:05:04,VALID,919.319,VALID,0,VALID,97.877,VALID,0,VALID,18.959,VALID,130,VALID,1.3875,
2010-01-11, 00:06:04,VALID,919.302,VALID,0,VALID,97.8923,VALID,0,VALID,18.9186,VALID,134,VALID,1.91875,
2010-01-11, 00:07:04,VALID,919.297,VALID,0,VALID,97.8694,VALID,0,VALID,18.9395,VALID,134,VALID,1.23945,
2010-01-11, 00:08:04,VALID,919.287,VALID,0,VALID,97.8542,VALID,0,VALID,18.9395,VALID,151,VALID,1.09023,
2010-01-11, 00:09:04,VALID,919.26,VALID,0,VALID,97.8618,VALID,0,VALID,18.9409,VALID,155,VALID,0.753906,
2010-01-11, 00:10:04,VALID,919.258,VALID,0,VALID,97.8694,VALID,0,VALID,18.9395,VALID,159,VALID,1.01797,
2010-01-11, 00:11:04,VALID,919.261,VALID,0,VALID,97.8923,VALID,0,VALID,18.9604,VALID,176,VALID,0.702734,
2010-01-11, 00:12:04,VALID,919.249,VALID,0,VALID,97.8923,VALID,0,VALID,18.9395,VALID,190,VALID,1.21719,
2010-01-11, 00:13:04,VALID,919.267,VALID,0,VALID,97.8847,VALID,0.107441,VALID,18.9395,VALID,177,VALID,1.07656,
2010-01-11, 00:14:04,VALID,919.256,VALID,0,VALID,97.877,VALID,0,VALID,18.92,VALID,146,VALID,0.786719,
2010-01-11, 00:15:04,VALID,919.225,VALID,0,VALID,97.8847,VALID,0,VALID,18.9005,VALID,147,VALID,1.0375,
2010-01-11, 00:16:04,VALID,919.257,VALID,0,VALID,97.8847,VALID,0.107441,VALID,18.881,VALID,140,VALID,1.23711,
2010-01-11, 00:17:04,VALID,919.253,VALID,0,VALID,97.877,VALID,0,VALID,18.8615,VALID,174,VALID,1.12969,
2010-01-11, 00:18:04,VALID,919.259,VALID,0,VALID,97.8923,VALID,0,VALID,18.8824,VALID,193,VALID,0.763672,
2010-01-11, 00:19:04,VALID,919.265,VALID,0,VALID,97.8999,VALID,0,VALID,18.8824,VALID,193,VALID,0.442187,
2010-01-11, 00:20:04,VALID,919.271,VALID,0,VALID,97.8694,VALID,0,VALID,18.8824,VALID,192,VALID,0.350391,
2010-01-11, 00:21:04,VALID,919.232,VALID,0,VALID,97.9075,VALID,0,VALID,18.842,VALID,185,VALID,0.845312,
2010-01-11, 00:22:04,VALID,919.264,VALID,0,VALID,97.8847,VALID,0,VALID,18.8225,VALID,156,VALID,0.984375,
2010-01-11, 00:23:04,VALID,919.255,VALID,0,VALID,97.877,VALID,0,VALID,18.842,VALID,156,VALID,0.816016,
2010-01-11, 00:24:04,VALID,919.26,VALID,0,VALID,97.8542,VALID,0,VALID,18.8225,VALID,156,VALID,0.592969,
2010-01-11, 00:25:04,VALID,919.256,VALID,0,VALID,97.8618,VALID,0.107441,VALID,18.842,VALID,156,VALID,0.480859,
2010-01-11, 00:26:04,VALID,919.284,VALID,0,VALID,97.8847,VALID,0,VALID,18.8225,VALID,139,VALID,0.78125,
2010-01-11, 00:27:04,VALID,919.257,VALID,0,VALID,97.877,VALID,0,VALID,18.8225,VALID,140,VALID,0.667969,
2010-01-11, 00:28:04,VALID,919.272,VALID,0,VALID,97.8465,VALID,0,VALID,18.824,VALID,140,VALID,0.648047,
2010-01-11, 00:29:04,VALID,919.263,VALID,0,VALID,97.8618,VALID,0,VALID,18.803,VALID,140,VALID,0.827344,
2010-01-11, 00:30:04,VALID,919.247,VALID,0,VALID,97.8618,VALID,0.107441,VALID,18.8225,VALID,140,VALID,0.726172,
2010-01-11, 00:31:04,VALID,919.225,VALID,0,VALID,97.8542,VALID,0,VALID,18.8225,VALID,140,VALID,0.968359,
2010-01-11, 00:32:04,VALID,919.236,VALID,0,VALID,97.8847,VALID,0,VALID,18.8629,VALID,140,VALID,0.554688,
2010-01-11, 00:33:04,VALID,919.225,VALID,0,VALID,97.8694,VALID,0.107441,VALID,18.8225,VALID,140,VALID,0.791016,
2010-01-11, 00:34:04,VALID,919.237,VALID,0,VALID,97.8694,VALID,0,VALID,18.8225,VALID,189,VALID,0.726172,
2010-01-11, 00:35:04,VALID,919.227,VALID,0,VALID,97.8465,VALID,0,VALID,18.803,VALID,189,VALID,0.873828,
2010-01-11, 00:36:04,VALID,919.212,VALID,0,VALID,97.8389,VALID,0,VALID,18.803,VALID,190,VALID,1.04844,
2010-01-11, 00:37:04,VALID,919.215,VALID,0,VALID,97.8465,VALID,0,VALID,18.8045,VALID,189,VALID,0.658984,
2010-01-11, 00:38:04,VALID,919.199,VALID,0,VALID,97.8618,VALID,0,VALID,18.8045,VALID,189,VALID,0.715625,
2010-01-11, 00:39:04,VALID,919.218,VALID,0,VALID,97.877,VALID,0,VALID,18.7835,VALID,189,VALID,0.656641,
2010-01-11, 00:40:04,VALID,919.206,VALID,0,VALID,97.8694,VALID,0,VALID,18.8045,VALID,189,VALID,0.411328,
2010-01-11, 00:41:04,VALID,919.197,VALID,0,VALID,97.8542,VALID,0,VALID,18.7835,VALID,189,VALID,0.158203,
2010-01-11, 00:42:04,VALID,919.221,VALID,0,VALID,97.8542,VALID,0.107441,VALID,18.8045,VALID,189,VALID,0.00195313,
2010-01-11, 00:43:04,VALID,919.19,VALID,0,VALID,97.8465,VALID,0,VALID,18.7835,VALID,189,VALID,0,
2010-01-11, 00:44:04,VALID,919.225,VALID,0,VALID,97.8694,VALID,0,VALID,18.824,VALID,189,VALID,0,
2010-01-11, 00:45:04,VALID,919.169,VALID,0,VALID,97.877,VALID,0,VALID,18.803,VALID,189,VALID,0,
2010-01-11, 00:46:04,VALID,919.176,VALID,0,VALID,97.877,VALID,0,VALID,18.803,VALID,189,VALID,0,
2010-01-11, 00:47:04,VALID,919.188,VALID,0,VALID,97.8313,VALID,0,VALID,18.7446,VALID,189,VALID,0.0191406,
2010-01-11, 00:48:04,VALID,919.194,VALID,0,VALID,97.8084,VALID,0.107441,VALID,18.6861,VALID,189,VALID,0.446875,
2010-01-11, 00:49:04,VALID,919.15,VALID,0,VALID,97.8084,VALID,0.107441,VALID,18.6471,VALID,189,VALID,0.450391,
2010-01-11, 00:50:04,VALID,919.139,VALID,0,VALID,97.8008,VALID,0.107441,VALID,18.6081,VALID,189,VALID,0.769141,
2010-01-11, 00:51:04,VALID,919.129,VALID,0,VALID,97.8465,VALID,0,VALID,18.6081,VALID,189,VALID,0.790234,
2010-01-11, 00:52:04,VALID,919.122,VALID,0,VALID,97.8237,VALID,0,VALID,18.6081,VALID,189,VALID,0.733203,
2010-01-11, 00:53:04,VALID,919.129,VALID,0,VALID,97.8542,VALID,0,VALID,18.6095,VALID,189,VALID,0.925,
2010-01-11, 00:54:04,VALID,919.137,VALID,0,VALID,97.8618,VALID,0,VALID,18.5886,VALID,189,VALID,0.747656,
2010-01-11, 00:55:04,VALID,919.117,VALID,0,VALID,97.8313,VALID,0,VALID,18.59,VALID,189,VALID,0.648047,
2010-01-11, 00:56:04,VALID,919.101,VALID,0,VALID,97.8542,VALID,0,VALID,18.59,VALID,189,VALID,0.747656,
2010-01-11, 00:57:04,VALID,919.113,VALID,0,VALID,97.8847,VALID,0,VALID,18.5886,VALID,189,VALID,0.298438,
2010-01-11, 00:58:04,VALID,919.104,VALID,0,VALID,97.9075,VALID,0,VALID,18.629,VALID,189,VALID,0.590625,
2010-01-11, 00:59:04,VALID,919.128,VALID,0,VALID,97.877,VALID,0,VALID,18.629,VALID,189,VALID,0.273828,
2010-01-11, 01:00:04,VALID,919.131,VALID,0,VALID,97.8999,VALID,0,VALID,18.6485,VALID,189,VALID,0.449609,
2010-01-11, 01:01:04,VALID,919.157,VALID,0,VALID,97.8694,VALID,0,VALID,18.668,VALID,189,VALID,1.04062,
2010-01-11, 01:02:04,VALID,919.204,VALID,0,VALID,97.8694,VALID,0,VALID,18.6471,VALID,189,VALID,0.972656,
2010-01-11, 01:03:04,VALID,919.206,VALID,0,VALID,97.8465,VALID,0,VALID,18.6471,VALID,189,VALID,0.908594,
2010-01-11, 01:04:04,VALID,919.212,VALID,0,VALID,97.877,VALID,0,VALID,18.6276,VALID,189,VALID,0.765625,
2010-01-11, 01:05:04,VALID,919.237,VALID,0,VALID,97.8618,VALID,0.107441,VALID,18.6276,VALID,189,VALID,0.639063,
2010-01-11, 01:06:04,VALID,919.208,VALID,0,VALID,97.8618,VALID,0,VALID,18.6471,VALID,189,VALID,0.704687,
2010-01-11, 01:07:04,VALID,919.205,VALID,0,VALID,97.8694,VALID,0,VALID,18.6471,VALID,189,VALID,0.567969,
2010-01-11, 01:08:04,VALID,919.204,VALID,0,VALID,97.8618,VALID,0,VALID,18.6276,VALID,189,VALID,0.678906,
2010-01-11, 01:09:04,VALID,919.187,VALID,0,VALID,97.877,VALID,0,VALID,18.6485,VALID,189,VALID,0.626562,
2010-01-11, 01:10:04,VALID,919.185,VALID,0,VALID,97.8542,VALID,0,VALID,18.6276,VALID,189,VALID,0.634766,
2010-01-11, 01:11:04,VALID,919.158,VALID,0,VALID,97.8923,VALID,0,VALID,18.6471,VALID,189,VALID,0.661328,
2010-01-11, 01:12:04,VALID,919.151,VALID,0,VALID,97.9075,VALID,0.107441,VALID,18.6861,VALID,189,VALID,0.514453,
2010-01-11, 01:13:04,VALID,919.107,VALID,0,VALID,97.9152,VALID,0,VALID,18.7056,VALID,189,VALID,0.607422,
2010-01-11, 01:14:04,VALID,919.092,VALID,0,VALID,97.8999,VALID,0,VALID,18.7251,VALID,189,VALID,0.686719,
2010-01-11, 01:15:04,VALID,919.108,VALID,0,VALID,97.8923,VALID,0,VALID,18.7446,VALID,189,VALID,0.557813,
2010-01-11, 01:16:04,VALID,919.097,VALID,0,VALID,97.9075,VALID,0,VALID,18.7655,VALID,189,VALID,0.458594,
2010-01-11, 01:17:04,VALID,919.123,VALID,0,VALID,97.8923,VALID,0.107441,VALID,18.764,VALID,189,VALID,0.261719,
2010-01-11, 01:18:04,VALID,919.121,VALID,0,VALID,97.8999,VALID,0.107441,VALID,18.8045,VALID,189,VALID,0.155469,
2010-01-11, 01:19:04,VALID,919.104,VALID,0,VALID,97.8999,VALID,0,VALID,18.785,VALID,189,VALID,0.0914062,
2010-01-11, 01:20:04,VALID,919.122,VALID,0,VALID,97.9075,VALID,0,VALID,18.803,VALID,189,VALID,0,
2010-01-11, 01:21:04,VALID,919.062,VALID,0,VALID,97.8847,VALID,0,VALID,18.8045,VALID,189,VALID,0,
2010-01-11, 01:22:04,VALID,919.054,VALID,0,VALID,97.9152,VALID,0,VALID,18.785,VALID,189,VALID,0.496875,
2010-01-11, 01:23:04,VALID,919.031,VALID,0,VALID,97.8923,VALID,0,VALID,18.7251,VALID,189,VALID,0.649609,
2010-01-11, 01:24:04,VALID,919.001,VALID,0,VALID,97.8999,VALID,0,VALID,18.7056,VALID,189,VALID,0.750781,
2010-01-11, 01:25:04,VALID,918.975,VALID,0,VALID,97.8694,VALID,0,VALID,18.7265,VALID,189,VALID,0.783984,
2010-01-11, 01:26:04,VALID,918.945,VALID,0,VALID,97.877,VALID,0,VALID,18.707,VALID,189,VALID,0.878516,
2010-01-11, 01:27:04,VALID,918.919,VALID,0,VALID,97.8847,VALID,0,VALID,18.6875,VALID,189,VALID,0.920313,
2010-01-11, 01:28:04,VALID,918.914,VALID,0,VALID,97.877,VALID,0,VALID,18.6666,VALID,189,VALID,0.694531,
2010-01-11, 01:29:04,VALID,918.889,VALID,0,VALID,97.8999,VALID,0,VALID,18.6875,VALID,189,VALID,0.825391,
2010-01-11, 01:30:04,VALID,918.834,VALID,0,VALID,97.8999,VALID,0,VALID,18.668,VALID,189,VALID,0.953125,
2010-01-11, 01:31:04,VALID,918.816,VALID,0,VALID,97.9075,VALID,0,VALID,18.6471,VALID,189,VALID,0.986719,
2010-01-11, 01:32:04,VALID,918.794,VALID,0,VALID,97.9152,VALID,0,VALID,18.668,VALID,188,VALID,0.897266,
2010-01-11, 01:33:04,VALID,918.799,VALID,0,VALID,97.8999,VALID,0,VALID,18.6471,VALID,188,VALID,0.559766,
2010-01-11, 01:34:04,VALID,918.798,VALID,0,VALID,97.9075,VALID,0,VALID,18.668,VALID,188,VALID,0.953125,
2010-01-11, 01:35:04,VALID,918.794,VALID,0,VALID,97.9075,VALID,0,VALID,18.707,VALID,188,VALID,0.960938,
2010-01-11, 01:36:04,VALID,918.793,VALID,0,VALID,97.9075,VALID,0,VALID,18.6861,VALID,188,VALID,0.919531,
2010-01-11, 01:37:04,VALID,918.752,VALID,0,VALID,97.8923,VALID,0,VALID,18.6861,VALID,188,VALID,1.07461,
2010-01-11, 01:38:04,VALID,918.759,VALID,0,VALID,97.8999,VALID,0,VALID,18.6666,VALID,135,VALID,1.05859,
2010-01-11, 01:39:04,VALID,918.767,VALID,0,VALID,97.9075,VALID,0,VALID,18.6861,VALID,135,VALID,0.936719,
2010-01-11, 01:40:04,VALID,918.743,VALID,0,VALID,97.9075,VALID,0,VALID,18.6666,VALID,135,VALID,0.873047,
2010-01-11, 01:41:04,VALID,918.757,VALID,0,VALID,97.9228,VALID,0.107441,VALID,18.707,VALID,135,VALID,1.12539,
2010-01-11, 01:42:04,VALID,918.752,VALID,0,VALID,97.8923,VALID,0.107441,VALID,18.7265,VALID,135,VALID,0.766797,
2010-01-11, 01:43:04,VALID,918.751,VALID,0,VALID,97.9075,VALID,0.107441,VALID,18.7265,VALID,135,VALID,0.658984,
2010-01-11, 01:44:04,VALID,918.734,VALID,0,VALID,97.9152,VALID,0,VALID,18.7251,VALID,135,VALID,0.725391,
2010-01-11, 01:45:04,VALID,918.734,VALID,0,VALID,97.9075,VALID,0,VALID,18.7251,VALID,135,VALID,0.791406,
2010-01-11, 01:46:04,VALID,918.757,VALID,0,VALID,97.9152,VALID,0.107441,VALID,18.7446,VALID,135,VALID,0.598828,
2010-01-11, 01:47:04,VALID,918.715,VALID,0,VALID,97.9152,VALID,0,VALID,18.7446,VALID,135,VALID,0.516406,
2010-01-11, 01:48:04,VALID,918.727,VALID,0,VALID,97.9152,VALID,0,VALID,18.7446,VALID,135,VALID,0.782812,
2010-01-11, 01:49:04,VALID,918.702,VALID,0,VALID,97.877,VALID,0,VALID,18.7446,VALID,135,VALID,0.845703,
2010-01-11, 01:50:04,VALID,918.683,VALID,0,VALID,97.8999,VALID,0,VALID,18.7446,VALID,135,VALID,0.751562,
2010-01-11, 01:51:04,VALID,918.643,VALID,0,VALID,97.8999,VALID,0,VALID,18.7251,VALID,130,VALID,1.0543,
2010-01-11, 01:52:04,VALID,918.623,VALID,0,VALID,97.8923,VALID,0,VALID,18.824,VALID,121,VALID,0.779297,
2010-01-11, 01:53:04,VALID,918.63,VALID,0,VALID,97.9075,VALID,0,VALID,18.7835,VALID,121,VALID,0.225391,
2010-01-11, 01:54:04,VALID,918.612,VALID,0,VALID,97.8847,VALID,0,VALID,18.7835,VALID,120,VALID,0.634375,
2010-01-11, 01:55:04,VALID,918.598,VALID,0,VALID,97.877,VALID,0,VALID,18.764,VALID,120,VALID,0.482812,
2010-01-11, 01:56:04,VALID,918.622,VALID,0,VALID,97.8923,VALID,0,VALID,18.785,VALID,121,VALID,0.5,
2010-01-11, 01:57:04,VALID,918.64,VALID,0,VALID,97.9075,VALID,0,VALID,18.7835,VALID,121,VALID,0.357812,
2010-01-11, 01:58:04,VALID,918.633,VALID,0,VALID,97.8999,VALID,0,VALID,18.7835,VALID,120,VALID,0.270703,
2010-01-11, 01:59:04,VALID,918.601,VALID,0,VALID,97.8999,VALID,0,VALID,18.842,VALID,120,VALID,0.153516,
2010-01-11, 02:00:04,VALID,918.597,VALID,0,VALID,97.8923,VALID,0,VALID,18.8615,VALID,121,VALID,0.390625,
2010-01-11, 02:01:04,VALID,918.605,VALID,0,VALID,97.8923,VALID,0,VALID,18.881,VALID,120,VALID,0.510156,
2010-01-11, 02:02:04,VALID,918.584,VALID,0,VALID,97.8847,VALID,0.107441,VALID,18.8615,VALID,121,VALID,0.427344,
2010-01-11, 02:03:04,VALID,918.584,VALID,0,VALID,97.8847,VALID,0,VALID,18.842,VALID,121,VALID,0.4,
2010-01-11, 02:04:04,VALID,918.601,VALID,0,VALID,97.8847,VALID,0,VALID,18.8615,VALID,121,VALID,0.592188,
2010-01-11, 02:05:04,VALID,918.576,VALID,0,VALID,97.8847,VALID,0,VALID,18.8615,VALID,121,VALID,0.383203,
2010-01-11, 02:06:04,VALID,918.564,VALID,0,VALID,97.8999,VALID,0,VALID,18.8615,VALID,121,VALID,0.500391,
2010-01-11, 02:07:04,VALID,918.603,VALID,0,VALID,97.8923,VALID,0,VALID,18.881,VALID,120,VALID,0.564844,
2010-01-11, 02:08:04,VALID,918.58,VALID,0,VALID,97.8999,VALID,0,VALID,18.8615,VALID,120,VALID,0.246875,
2010-01-11, 02:09:04,VALID,918.603,VALID,0,VALID,97.8999,VALID,0,VALID,18.8824,VALID,120,VALID,0.361719,
2010-01-11, 02:10:04,VALID,918.603,VALID,0,VALID,97.8847,VALID,0,VALID,18.8615,VALID,121,VALID,0,
2010-01-11, 02:11:04,VALID,918.594,VALID,0,VALID,97.8923,VALID,0,VALID,18.8824,VALID,120,VALID,0.251172,
2010-01-11, 02:12:04,VALID,918.613,VALID,0,VALID,97.8847,VALID,0,VALID,18.8615,VALID,121,VALID,0.478906,
2010-01-11, 02:13:04,VALID,918.586,VALID,0,VALID,97.8847,VALID,0,VALID,18.9019,VALID,121,VALID,0.565234,
2010-01-11, 02:14:04,VALID,918.577,VALID,0,VALID,97.8923,VALID,0,VALID,18.881,VALID,120,VALID,0.652344,
2010-01-11, 02:15:04,VALID,918.579,VALID,0,VALID,97.8923,VALID,0,VALID,18.8629,VALID,121,VALID,0.837109,
2010-01-11, 02:16:04,VALID,918.562,VALID,0,VALID,97.877,VALID,0,VALID,18.8225,VALID,121,VALID,0.669531,
2010-01-11, 02:17:04,VALID,918.555,VALID,0,VALID,97.8847,VALID,0.107441,VALID,18.842,VALID,121,VALID,0.578516,
2010-01-11, 02:18:04,VALID,918.52,VALID,0,VALID,97.8923,VALID,0.107441,VALID,18.842,VALID,121,VALID,0.607813,
2010-01-11, 02:19:04,VALID,918.516,VALID,0,VALID,97.9075,VALID,0,VALID,18.842,VALID,120,VALID,0.660547,
2010-01-11, 02:20:04,VALID,918.498,VALID,0,VALID,97.8999,VALID,0.107441,VALID,18.8615,VALID,121,VALID,0.762891,
2010-01-11, 02:21:04,VALID,918.468,VALID,0,VALID,97.8923,VALID,0,VALID,18.842,VALID,121,VALID,0.325,
2010-01-11, 02:22:04,VALID,918.474,VALID,0,VALID,97.8847,VALID,0.107441,VALID,18.8615,VALID,120,VALID,0.874609,
2010-01-11, 02:23:04,VALID,918.462,VALID,0,VALID,97.8923,VALID,0,VALID,18.8615,VALID,121,VALID,0.515625,
2010-01-11, 02:24:04,VALID,918.468,VALID,0,VALID,97.9152,VALID,0,VALID,18.8615,VALID,121,VALID,0.522656,
2010-01-11, 02:25:04,VALID,918.444,VALID,0,VALID,97.8999,VALID,0,VALID,18.8615,VALID,121,VALID,0.642187,
2010-01-11, 02:26:04,VALID,918.43,VALID,0,VALID,97.9075,VALID,0,VALID,18.8615,VALID,121,VALID,0.817969,
2010-01-11, 02:27:04,VALID,918.446,VALID,0,VALID,97.8923,VALID,0,VALID,18.8615,VALID,121,VALID,0.900391,
2010-01-11, 02:28:04,VALID,918.441,VALID,0,VALID,97.9152,VALID,0,VALID,18.8824,VALID,121,VALID,0.970312,
2010-01-11, 02:29:04,VALID,918.413,VALID,0,VALID,97.8847,VALID,0,VALID,18.881,VALID,121,VALID,0.830078,
2010-01-11, 02:30:04,VALID,918.387,VALID,0,VALID,97.8847,VALID,0,VALID,18.8615,VALID,121,VALID,0.632422,
2010-01-11, 02:31:04,VALID,918.341,VALID,0,VALID,97.8847,VALID,0,VALID,18.881,VALID,120,VALID,0.435937,
2010-01-11, 02:32:04,VALID,918.314,VALID,0,VALID,97.8847,VALID,0,VALID,18.881,VALID,121,VALID,0.794531,
2010-01-11, 02:33:04,VALID,918.308,VALID,0,VALID,97.9075,VALID,0,VALID,18.881,VALID,121,VALID,0.835156,
2010-01-11, 02:34:04,VALID,918.277,VALID,0,VALID,97.8847,VALID,0,VALID,18.9019,VALID,121,VALID,0.472266,
2010-01-11, 02:35:04,VALID,918.282,VALID,0,VALID,97.8847,VALID,0,VALID,18.9005,VALID,121,VALID,0.483203,
2010-01-11, 02:36:04,VALID,918.271,VALID,0,VALID,97.877,VALID,0,VALID,18.881,VALID,121,VALID,0.546484,
2010-01-11, 02:37:04,VALID,918.263,VALID,0,VALID,97.8847,VALID,0,VALID,18.9005,VALID,121,VALID,0.258203,
2010-01-11, 02:38:04,VALID,918.3,VALID,0,VALID,97.8923,VALID,0,VALID,18.92,VALID,120,VALID,0.379687,
2010-01-11, 02:39:04,VALID,918.316,VALID,0,VALID,97.877,VALID,0,VALID,18.92,VALID,121,VALID,0.355078,
2010-01-11, 02:40:04,VALID,918.283,VALID,0,VALID,97.8694,VALID,0,VALID,18.9395,VALID,121,VALID,0,
2010-01-11, 02:41:05,VALID,918.254,VALID,0,VALID,97.8694,VALID,0,VALID,18.9409,VALID,121,VALID,0.00078125,
2010-01-11, 02:42:05,VALID,918.26,VALID,0,VALID,97.8999,VALID,0,VALID,18.92,VALID,121,VALID,0.429297,
2010-01-11, 02:43:05,VALID,918.248,VALID,0,VALID,97.8847,VALID,0,VALID,18.92,VALID,121,VALID,0.549609,
2010-01-11, 02:44:05,VALID,918.217,VALID,0,VALID,97.8847,VALID,0,VALID,18.9005,VALID,121,VALID,0.663672,
2010-01-11, 02:45:05,VALID,918.225,VALID,0,VALID,97.8542,VALID,0,VALID,18.881,VALID,121,VALID,0.73125,
2010-01-11, 02:46:05,VALID,918.17,VALID,0,VALID,97.8618,VALID,0,VALID,18.9019,VALID,121,VALID,0.794922,
2010-01-11, 02:47:05,VALID,918.132,VALID,0,VALID,97.8694,VALID,0,VALID,18.881,VALID,121,VALID,0.744922,
2010-01-11, 02:48:05,VALID,918.112,VALID,0,VALID,97.8923,VALID,0.107441,VALID,18.881,VALID,121,VALID,0.569922,
2010-01-11, 02:49:05,VALID,918.13,VALID,0,VALID,97.8847,VALID,0,VALID,18.8629,VALID,121,VALID,0.681641,
2010-01-11, 02:50:05,VALID,918.11,VALID,0,VALID,97.8923,VALID,0.107441,VALID,18.842,VALID,121,VALID,0.731641,
2010-01-11, 02:51:05,VALID,918.097,VALID,0,VALID,97.9075,VALID,0,VALID,18.8225,VALID,122,VALID,0.630469,
2010-01-11, 02:52:05,VALID,918.104,VALID,0,VALID,97.8923,VALID,0,VALID,18.8434,VALID,122,VALID,0.620703,
2010-01-11, 02:53:05,VALID,918.121,VALID,0,VALID,97.8847,VALID,0,VALID,18.824,VALID,122,VALID,0.579687,
2010-01-11, 02:54:05,VALID,918.116,VALID,0,VALID,97.8847,VALID,0,VALID,18.8045,VALID,122,VALID,0.462891,
2010-01-11, 02:55:05,VALID,918.134,VALID,0,VALID,97.9075,VALID,0,VALID,18.7835,VALID,122,VALID,0.226953,
2010-01-11, 02:56:05,VALID,918.144,VALID,0,VALID,97.877,VALID,0,VALID,18.764,VALID,122,VALID,0.248047,
2010-01-11, 02:57:05,VALID,918.158,VALID,0,VALID,97.8847,VALID,0,VALID,18.7446,VALID,122,VALID,0.302734,
2010-01-11, 02:58:05,VALID,918.14,VALID,0,VALID,97.8999,VALID,0,VALID,18.764,VALID,122,VALID,0.0460938,
2010-01-11, 02:59:05,VALID,918.145,VALID,0,VALID,97.8923,VALID,0,VALID,18.764,VALID,122,VALID,0.305469,
2010-01-11, 03:00:05,VALID,918.154,VALID,0,VALID,97.8923,VALID,0,VALID,18.785,VALID,122,VALID,0.44375,
2010-01-11, 03:01:05,VALID,918.123,VALID,0,VALID,97.8694,VALID,0,VALID,18.7835,VALID,122,VALID,0.357422,
2010-01-11, 03:02:05,VALID,918.109,VALID,0,VALID,97.877,VALID,0,VALID,18.785,VALID,122,VALID,0.416016,
2010-01-11, 03:03:05,VALID,918.085,VALID,0,VALID,97.877,VALID,0,VALID,18.7265,VALID,122,VALID,0.657812,
2010-01-11, 03:04:05,VALID,918.071,VALID,0,VALID,97.8694,VALID,0,VALID,18.6875,VALID,122,VALID,0.504297,
2010-01-11, 03:05:05,VALID,918.052,VALID,0,VALID,97.877,VALID,0,VALID,18.668,VALID,122,VALID,0.639844,
2010-01-11, 03:06:05,VALID,918.102,VALID,0,VALID,97.8542,VALID,0,VALID,18.6276,VALID,122,VALID,0.549609,
2010-01-11, 03:07:05,VALID,918.072,VALID,0,VALID,97.8999,VALID,0.107441,VALID,18.6276,VALID,122,VALID,0.386719,
2010-01-11, 03:08:05,VALID,918.049,VALID,0,VALID,97.877,VALID,0,VALID,18.6485,VALID,122,VALID,0.401563,
2010-01-11, 03:09:05,VALID,918.05,VALID,0,VALID,97.8999,VALID,0.107441,VALID,18.6081,VALID,122,VALID,0.314844,
2010-01-11, 03:10:05,VALID,918.009,VALID,0,VALID,97.8618,VALID,0,VALID,18.5886,VALID,122,VALID,0.311719,
2010-01-11, 03:11:05,VALID,917.959,VALID,0,VALID,97.8923,VALID,0,VALID,18.59,VALID,122,VALID,0.413672,
2010-01-11, 03:12:05,VALID,917.907,VALID,0,VALID,97.8923,VALID,0,VALID,18.5705,VALID,122,VALID,0.603906,
2010-01-11, 03:13:05,VALID,917.901,VALID,0,VALID,97.9304,VALID,0,VALID,18.59,VALID,122,VALID,0.842188,
2010-01-11, 03:14:05,VALID,917.896,VALID,0,VALID,97.9152,VALID,0,VALID,18.5886,VALID,122,VALID,0.928906,
2010-01-11, 03:15:05,VALID,917.86,VALID,0,VALID,97.8999,VALID,0,VALID,18.5886,VALID,122,VALID,0.852734,
2010-01-11, 03:16:05,VALID,917.891,VALID,0,VALID,97.9304,VALID,0,VALID,18.629,VALID,122,VALID,1.02344,
2010-01-11, 03:17:05,VALID,917.884,VALID,0,VALID,97.9152,VALID,0,VALID,18.6485,VALID,122,VALID,0.819531,
2010-01-11, 03:18:05,VALID,917.901,VALID,0,VALID,97.9075,VALID,0,VALID,18.629,VALID,122,VALID,0.877344,
2010-01-11, 03:19:05,VALID,917.848,VALID,0,VALID,97.9228,VALID,0,VALID,18.6485,VALID,122,VALID,0.666016,
2010-01-11, 03:20:05,VALID,917.873,VALID,0,VALID,97.9075,VALID,0,VALID,18.668,VALID,122,VALID,0.924219,
2010-01-11, 03:21:05,VALID,917.84,VALID,0,VALID,97.8999,VALID,0,VALID,18.6471,VALID,122,VALID,1.12734,
2010-01-11, 03:22:05,VALID,917.786,VALID,0,VALID,97.9152,VALID,0,VALID,18.668,VALID,122,VALID,1.08555,
2010-01-11, 03:23:05,VALID,917.797,VALID,0,VALID,97.9075,VALID,0,VALID,18.6276,VALID,122,VALID,0.626562,
2010-01-11, 03:24:05,VALID,917.794,VALID,0,VALID,97.9075,VALID,0,VALID,18.6276,VALID,122,VALID,0.81875,
2010-01-11, 03:25:05,VALID,917.799,VALID,0,VALID,97.9152,VALID,0,VALID,18.6485,VALID,122,VALID,0.809375,
2010-01-11, 03:26:05,VALID,917.776,VALID,0,VALID,97.9152,VALID,0,VALID,18.6081,VALID,122,VALID,0.661328,
2010-01-11, 03:27:05,VALID,917.752,VALID,0,VALID,97.9152,VALID,0,VALID,18.629,VALID,122,VALID,0.938672,
2010-01-11, 03:28:05,VALID,917.745,VALID,0,VALID,97.9075,VALID,0,VALID,18.629,VALID,122,VALID,0.751562,
2010-01-11, 03:29:05,VALID,917.712,VALID,0,VALID,97.8999,VALID,0,VALID,18.6095,VALID,122,VALID,0.989062,
2010-01-11, 03:30:05,VALID,917.674,VALID,0,VALID,97.9152,VALID,0,VALID,18.6095,VALID,122,VALID,0.871094,
2010-01-11, 03:31:05,VALID,917.719,VALID,0,VALID,97.9228,VALID,0,VALID,18.629,VALID,122,VALID,0.935156,
2010-01-11, 03:32:05,VALID,917.703,VALID,0,VALID,97.9152,VALID,0,VALID,18.5886,VALID,122,VALID,0.663281,
2010-01-11, 03:33:05,VALID,917.692,VALID,0,VALID,97.9228,VALID,0,VALID,18.5691,VALID,122,VALID,0.638672,
2010-01-11, 03:34:05,VALID,917.697,VALID,0,VALID,97.9304,VALID,0,VALID,18.59,VALID,122,VALID,0.60625,
2010-01-11, 03:35:05,VALID,917.669,VALID,0,VALID,97.9304,VALID,0,VALID,18.59,VALID,122,VALID,0.516016,
2010-01-11, 03:36:05,VALID,917.659,VALID,0,VALID,97.9304,VALID,0,VALID,18.5886,VALID,123,VALID,0.827734,
2010-01-11, 03:37:05,VALID,917.649,VALID,0,VALID,97.9228,VALID,0,VALID,18.5691,VALID,123,VALID,0.788672,
2010-01-11, 03:38:05,VALID,917.658,VALID,0,VALID,97.9075,VALID,0,VALID,18.5496,VALID,123,VALID,0.667578,
2010-01-11, 03:39:05,VALID,917.679,VALID,0,VALID,97.9304,VALID,0,VALID,18.5302,VALID,123,VALID,0.645703,
2010-01-11, 03:40:05,VALID,917.652,VALID,0,VALID,97.9304,VALID,0,VALID,18.5511,VALID,123,VALID,0.608594,
2010-01-11, 03:41:05,VALID,917.635,VALID,0,VALID,97.938,VALID,0,VALID,18.5302,VALID,123,VALID,0.7375,
2010-01-11, 03:42:05,VALID,917.644,VALID,0,VALID,97.9304,VALID,0,VALID,18.5511,VALID,123,VALID,0.617578,
2010-01-11, 03:43:05,VALID,917.626,VALID,0,VALID,97.9228,VALID,0,VALID,18.5302,VALID,123,VALID,0.880859,